Regional Weather Roundup
Issued by NWS

Home | Current Version | Previous Version | Graphics & Text | Print | Product List | Glossary On
Versions: 1 2 3 4 5 6 7 8 9 10 11 12 13 14 15 16 17 18 19 20 21 22 23 24 25 26 27 28 29 30 31 32 33 34 35 36 37 38 39 40 41 42 43 44 45 46 47 48 49 50
000
ASUS45 KPSR 180610
RWRAZ

ARIZONA REGIONAL HOURLY WEATHER ROUNDUP
NATIONAL WEATHER SERVICE PHOENIX AZ
1100 PM MST THU APR 17 2014

NOTE: FAIR INDICATES FEW OR NO CLOUDS BELOW 12,000 FEET WITH NO
SIGNIFICANT WEATHER AND/OR OBSTRUCTIONS TO VISIBILITY.

AZZ001>003-036-180700-
NORTHWEST ARIZONA

CITY           SKY/WX    TMP DP  RH WIND       PRES   REMARKS
BULLHEAD CITY  MOCLDY    79  23  12 SW3       29.79S
KINGMAN        MOCLDY    65  17  15 S13       29.93F
6HR MIN TEMP:  65; 6HR MAX TEMP:  81;

$$

AZZ004>008-015-016-018-180700-
NORTH CENTRAL ARIZONA

CITY           SKY/WX    TMP DP  RH WIND       PRES   REMARKS
GRAND CANYON   MOCLDY    39  16  39 CALM      30.12F
6HR MIN TEMP:  38; 6HR MAX TEMP:  71;

WILLIAMS       MOCLDY    50  16  25 S6        30.19F
PRESCOTT       MOCLDY    57  19  22 S5        30.04F
6HR MIN TEMP:  56; 6HR MAX TEMP:  76;

FLAGSTAFF      MOCLDY    42  18  37 CALM      30.15F
6HR MIN TEMP:  42; 6HR MAX TEMP:  66;

PAYSON         MOCLDY    59  19  21 CALM      30.07S
PAGE           PTCLDY    71  21  15 SW12G17   29.94S
6HR MIN TEMP:  69; 6HR MAX TEMP:  80;

$$

AZZ009>014-017-180700-
NORTHEAST ARIZONA

CITY           SKY/WX    TMP DP  RH WIND       PRES   REMARKS
WINSLOW        PTCLDY    57  22  25 CALM      30.04F
6HR MIN TEMP:  53; 6HR MAX TEMP:  78;

SAINT JOHNS    PTCLDY    55  19  24 SE6       30.08S
6HR MIN TEMP:  55; 6HR MAX TEMP:  74;

WINDOW ROCK    PTCLDY    41  17  38 CALM      30.15S
6HR MIN TEMP:  41; 6HR MAX TEMP:  71;

SHOW LOW       PTCLDY    50  16  25 S8        30.15S
$$

AZZ023-180700-
GREATER PHOENIX AREA

CITY           SKY/WX    TMP DP  RH WIND       PRES   REMARKS
PHOENIX        MOCLDY    82  24  12 W9        29.81S
6HR MIN TEMP:  80; 6HR MAX TEMP:  92;

BUCKEYE          N/A     72  28  20 CALM      29.84S
LUKE AFB       NOT AVBL
6HR MIN TEMP:  75; 6HR MAX TEMP:  90;

DEER VALLEY    PTCLDY    73  22  14 E6        29.83S
6HR MIN TEMP:  73; 6HR MAX TEMP:  88;

SCOTTSDALE     PTCLDY    75  28  17 CALM      29.85R
6HR MIN TEMP:  75; 6HR MAX TEMP:  89;

MESA-GATEWAY   MOCLDY    72  30  21 W3        29.85S
$$

AZZ027-028-180700-
SOUTHWEST MARICOPA COUNTY AND PINAL COUNTY

CITY           SKY/WX    TMP DP  RH WIND       PRES   REMARKS
CASA GRANDE    MOCLDY    77  28  16 W10       29.85S
6HR MIN TEMP:  77; 6HR MAX TEMP:  90;

GILA BEND      MOCLDY    77  34  20 SW6       29.85S
$$

AZZ503-504-507>509-180700-
SOUTHEAST ARIZONA

CITY           SKY/WX    TMP DP  RH WIND       PRES   REMARKS
TUCSON         CLOUDY    74  30  19 W6        29.95R
6HR MIN TEMP:  74; 6HR MAX TEMP:  90;

DAVIS-MONTHAN  CLOUDY    74  31  20 W6        29.93R
6HR MIN TEMP:  74; 6HR MAX TEMP:  88;

NOGALES        CLOUDY    68  23  18 CALM      30.00S
6HR MIN TEMP:  66; 6HR MAX TEMP:  84;

SIERRA VISTA   CLOUDY    70  21  16 W10       30.04S
DOUGLAS        CLOUDY    63  13  14 SE8       30.02S
6HR MIN TEMP:  63; 6HR MAX TEMP:  82;

SAFFORD        PTCLDY    68  10  10 E7        29.93S
6HR MIN TEMP:  68; 6HR MAX TEMP:  86;

$$

AZZ020-021-025-026-031-180700-
SOUTHWEST ARIZONA

CITY           SKY/WX    TMP DP  RH WIND       PRES   REMARKS
YUMA           CLOUDY    74  43  32 SE9       29.79F
6HR MIN TEMP:  72; 6HR MAX TEMP:  88;

$$

CAZ031-033-041-043-047-048-061-180700-
SOUTHERN CALIFORNIA

CITY           SKY/WX    TMP DP  RH WIND       PRES   REMARKS
DOWNTOWN L.A.  CLOUDY    62  53  72 SE5       29.92R
6HR MIN TEMP:  62; 6HR MAX TEMP:  66;

L.A. AIRPORT   CLOUDY    62  52  69 SE6       29.91F
6HR MIN TEMP:  61; 6HR MAX TEMP:  64;

SAN DIEGO      CLOUDY    62  53  72 S6        29.94S
6HR MIN TEMP:  62; 6HR MAX TEMP:  64;

BURBANK        CLOUDY    60  52  74 SE8       29.92S
6HR MIN TEMP:  59; 6HR MAX TEMP:  68;

ONTARIO        CLOUDY    59  53  80 SW9       29.92R
6HR MIN TEMP:  59; 6HR MAX TEMP:  71;

RIVERSIDE      CLOUDY    59  53  80 VRB5      29.92S
6HR MIN TEMP:  59; 6HR MAX TEMP:  71;

PALM SPRINGS   CLOUDY    75  52  44 NW12      29.81F
6HR MIN TEMP:  75; 6HR MAX TEMP:  85;

EL CENTRO NAS  CLOUDY    71  46  40 SE3       29.75F
6HR MIN TEMP:  69; 6HR MAX TEMP:  86;

IMPERIAL       CLOUDY    72  44  36 SE5       29.76S
6HR MIN TEMP:  72; 6HR MAX TEMP:  86;

BLYTHE         CLOUDY    78  32  18 S8        29.78F
6HR MIN TEMP:  78; 6HR MAX TEMP:  90;

NEEDLES        MOCLDY    82  24  12 SW10      29.79S
6HR MIN TEMP:  82; 6HR MAX TEMP:  93;

$$

NVZ020-UTZ003-180700-
SOUTHERN NEVADA-UTAH

CITY           SKY/WX    TMP DP  RH WIND       PRES   REMARKS
LAS VEGAS      CLOUDY    78  21  12 S12       29.77F
6HR MIN TEMP:  77; 6HR MAX TEMP:  89;

SALT LAKE CITY MOCLDY    62  28  27 SE14      29.81F
6HR MIN TEMP:  58; 6HR MAX TEMP:  71;

$$

NMZ009-TXZ055-180700-
NEW MEXICO-WEST TEXAS

CITY           SKY/WX    TMP DP  RH WIND       PRES   REMARKS
ALBUQUERQUE    PTCLDY    57  25  29 E16       30.14S
6HR MIN TEMP:  57; 6HR MAX TEMP:  69;

EL PASO        CLEAR     64  29  26 CALM      30.11R
6HR MIN TEMP:  64; 6HR MAX TEMP:  81;

$$


........................KEY........................
SKY/WX - SKY CONDITION/WEATHER
TMP    - TEMPERATURE IN FAHRENHEIT
DP     - DEW POINT IN FAHRENHEIT
RH     - RELATIVE HUMIDITY IN PERCENT
WIND   - DIRECTION AND SPEED IN MILES PER HOUR (MPH)
VRB    - VARIABLE WIND DIRECTION
PRES   - MEAN SEA LEVEL PRESSURE IN INCHES OF MERCURY
         F - FALLING PRESSURE   R - RISING PRESSURE
         S - STEADY PRESSURE
VSB    - VISIBILITY IN MILES
HX     - HEAT INDEX IN FAHRENHEIT
WCI    - WIND CHILL INDEX IN FAHRENHEIT
TC     - TEMPERATURE IN CELSIUS WHICH IS ALSO KNOWN AS
         TEMPERATURE IN CENTIGRADE
AFB    - AIR FORCE BASE
         LUKE AFB IS LUKE AIR FORCE BASE
         DAVIS-MONTHAN IS DAVIS-MONTHAN AIR FORCE BASE
NAS    - NAVAL AIR STATION
         EL CENTRO NAS IS EL CENTRO NAVAL AIR STATION
N/A    - NOT AVAILABLE



USA.gov is the U.S. government's official web portal to all federal, state and local government web resources and services.